Regional Weather Roundup
Issued by NWS Goodland, KS

Home | Current Version | Previous Version | Graphics & Text | Print | Product List | Glossary On
Versions: 1 2 3 4 5 6 7 8 9 10 11 12 13 14 15 16 17 18 19 20 21 22 23 24 25 26 27 28 29 30 31 32 33 34 35 36 37 38 39 40 41 42 43 44 45 46 47 48 49 50
000
ASUS43 KGLD 100508
RWRGLD

GOODLAND FORECAST AREA HOURLY WEATHER ROUNDUP
NATIONAL WEATHER SERVICE GOODLAND KS
1000 PM MST FRI DEC 09 2016

...OFFICIAL OBSERVATIONS...

CITY           SKY/WX    TMP DP  RH WIND       PRES   REMARKS
GOODLAND KS    CLOUDY    25  20  81 S14       30.18F WCI  13
HILL CITY KS   CLOUDY    20  12  71 SE5       30.34R
IMPERIAL NEB   CLOUDY    20  13  74 E8        30.23F
MCCOOK NEB     CLOUDY    15  10  80 E8        30.28F
AKRON CO       CLOUDY    21  15  78 E3        30.14R
BURLINGTON CO  CLOUDY    25  18  74 S12       30.15F WCI  14
LIMON CO       CLOUDY    16  12  84 CALM      30.11F
$$

...UNOFFICIAL OBSERVATIONS...

CITY           SKY/WX    TMP DP  RH WIND       PRES   REMARKS
COLBY KS       CLEAR     21  19  93 SE8       30.24S
LENORA KS        N/A     20  32 100 MISG        N/A
NORTON KS      PTCLDY    19  10  68 E6        30.32R
OBERLIN KS     MOCLDY    18  12  79 E6        30.31S
SHARON SPRINGS   N/A     21  18  86 S12         N/A  WCI   9
TRIBUNE KS     CLOUDY    21  18  86 SE7       30.23
TRENTON NEB      N/A     15  32 100 SE7         N/A
KIT CARSON CO    N/A     22  15  73 CALM        N/A
YUMA CO        MOCLDY    19  14  79 CALM      30.17R
$$



USA.gov is the U.S. government's official web portal to all federal, state and local government web resources and services.